Weather History for Enid, OK

Change the Weather History Date:

Thursday, August 21, 2014

  Actual Average Record
Temperature  
Mean Temperature 90 °F -  
Max Temperature 102 °F 91 °F 102 °F (2003)
Min Temperature 77 °F 68 °F 59 °F (2004)
Cooling Degree Days 24    
Growing Degree Days 40 (Base 50)    
Moisture  
Dew Point 69 °F    
Average Humidity 62    
Maximum Humidity 78    
Minimum Humidity 31    
Precipitation  
Precipitation 0.00 in - - ()
Sea Level Pressure  
Sea Level Pressure 29.89 in    
Wind  
Wind Speed 13 mph (SSE)    
Max Wind Speed 21 mph    
Max Gust Speed 30 mph    
Visibility 10 miles    
Events      
Averages and records for this station are not official NWS values.
T = Trace of Precipitation, MM = Missing Value Source: NWS Daily Summary

Daily Weather History Graph

Daily Weather History Graph

Search for Another Location

Airport:

Trip Planner

Search our weather history database for the weather conditions in past years. The results will help you decide how hot, cold, wet, or windy it might be!

Date:

Astronomy

Aug. 21, 2014 Rise Set
Actual Time 6:53 AM CDT 8:14 PM CDT
Civil Twilight 6:26 AM CDT 8:40 PM CDT
Nautical Twilight 5:54 AM CDT 9:13 PM CDT
Astronomical Twilight 5:20 AM CDT 9:46 PM CDT
Moon 3:28 AM CDT (8/21) 5:41 PM CDT (8/21)
Length of Visible Light 14h 14m
Length of Day
13h 20m
Waning Crescent, 13% of the Moon is Illuminated
Aug 21
Waning Crescent
Aug 25
New
Sep 2
First Quarter
Sep 8
Full
Sep 15
Last Quarter

Hourly Weather History & Observations

Time (CDT) Temp. Heat Index Dew Point Humidity Pressure Visibility Wind Dir Wind Speed Gust Speed Precip Events Conditions
12:15 AM 82.4 °F 83.9 °F 64.4 °F 54% 29.88 in 10.0 mi South 13.8 mph - N/A   Clear
12:35 AM 80.6 °F 82.3 °F 64.4 °F 58% 29.88 in 10.0 mi South 12.7 mph - N/A   Clear
12:55 AM 80.6 °F 82.3 °F 64.4 °F 58% 29.89 in 10.0 mi South 12.7 mph - N/A   Clear
1:15 AM 78.8 °F - 66.2 °F 65% 29.89 in 10.0 mi South 10.4 mph - N/A   Clear
1:35 AM 78.8 °F - 66.2 °F 65% 29.89 in 10.0 mi South 10.4 mph - N/A   Clear
1:55 AM 78.8 °F - 68.0 °F 69% 29.88 in 10.0 mi South 11.5 mph - N/A   Clear
2:15 AM 78.8 °F - 68.0 °F 69% 29.88 in 10.0 mi South 12.7 mph - N/A   Clear
2:35 AM 78.8 °F - 68.0 °F 69% 29.87 in 10.0 mi South 12.7 mph - N/A   Clear
2:55 AM 78.8 °F - 68.0 °F 69% 29.87 in 10.0 mi South 13.8 mph - N/A   Clear
3:15 AM 78.8 °F - 68.0 °F 69% 29.87 in 10.0 mi South 11.5 mph - N/A   Clear
3:35 AM 78.8 °F - 68.0 °F 69% 29.88 in 10.0 mi South 12.7 mph - N/A   Clear
3:55 AM 77.0 °F - 68.0 °F 74% 29.88 in 10.0 mi South 11.5 mph - N/A   Clear
4:15 AM 77.0 °F - 68.0 °F 74% 29.88 in 10.0 mi South 11.5 mph - N/A   Clear
4:35 AM 77.0 °F - 68.0 °F 74% 29.88 in 10.0 mi South 11.5 mph - N/A   Clear
4:55 AM 77.0 °F - 68.0 °F 74% 29.89 in 10.0 mi South 11.5 mph - N/A   Clear
5:15 AM 77.0 °F - 68.0 °F 74% 29.89 in 10.0 mi South 10.4 mph - N/A   Clear
5:35 AM 77.0 °F - 68.0 °F 74% 29.89 in 10.0 mi South 10.4 mph - N/A   Clear
5:55 AM 77.0 °F - 68.0 °F 74% 29.89 in 10.0 mi South 12.7 mph - N/A   Clear
6:15 AM 77.0 °F - 69.8 °F 78% 29.90 in 10.0 mi South 10.4 mph - N/A   Partly Cloudy
6:50 AM 77.0 °F - 69.8 °F 78% 29.92 in 10.0 mi South 9.2 mph - N/A   Partly Cloudy
7:50 AM 77.0 °F - 69.8 °F 78% 29.92 in 10.0 mi South 9.2 mph - N/A   Partly Cloudy
8:50 AM 82.4 °F 86.3 °F 69.8 °F 66% 29.93 in 10.0 mi SSE 18.4 mph 27.6 mph N/A   Clear
9:50 AM 86.0 °F 90.4 °F 69.8 °F 58% 29.93 in 10.0 mi South 20.7 mph 29.9 mph N/A   Clear
11:50 AM 93.2 °F 97.7 °F 68.0 °F 44% 29.93 in 10.0 mi South 20.7 mph 29.9 mph N/A   Clear
12:50 PM 96.8 °F 101.8 °F 68.0 °F 39% 29.92 in 10.0 mi South 19.6 mph 28.8 mph N/A   Partly Cloudy
1:50 PM 98.6 °F 104.1 °F 68.0 °F 37% 29.90 in 10.0 mi SSW 17.3 mph 28.8 mph N/A   Scattered Clouds
2:50 PM 100.4 °F 106.3 °F 68.0 °F 35% 29.89 in 10.0 mi SSE 15.0 mph 26.5 mph N/A   Scattered Clouds
4:50 PM 102.2 °F 106.9 °F 66.2 °F 31% 29.86 in 10.0 mi South 20.7 mph 28.8 mph N/A   Scattered Clouds
5:50 PM 100.4 °F 104.9 °F 66.2 °F 33% 29.85 in 10.0 mi South 20.7 mph 28.8 mph N/A   Scattered Clouds
6:50 PM 96.8 °F 100.7 °F 66.2 °F 37% 29.86 in 10.0 mi South 17.3 mph 25.3 mph N/A   Clear
7:50 PM 91.4 °F 96.8 °F 69.8 °F 49% 29.86 in 10.0 mi SSE 17.3 mph 23.0 mph N/A   Clear
8:50 PM 87.8 °F 93.8 °F 71.6 °F 58% 29.88 in 10.0 mi SE 17.3 mph 23.0 mph N/A   Clear
9:15 PM 86.0 °F 91.8 °F 71.6 °F 62% 29.89 in 10.0 mi SSE 13.8 mph - N/A   Clear
9:35 PM 86.0 °F 91.8 °F 71.6 °F 62% 29.89 in 10.0 mi SSE 13.8 mph - N/A   Clear
9:55 PM 86.0 °F 91.8 °F 71.6 °F 62% 29.90 in 10.0 mi SSE 13.8 mph - N/A   Clear
10:15 PM 84.2 °F 89.6 °F 71.6 °F 66% 29.91 in 10.0 mi SSE 13.8 mph - N/A   Clear
10:35 PM 82.4 °F 87.2 °F 71.6 °F 70% 29.91 in 10.0 mi SSE 11.5 mph - N/A   Clear
11:15 PM 82.4 °F 87.2 °F 71.6 °F 70% 29.91 in 10.0 mi SSE 10.4 mph - N/A   Clear
11:35 PM 82.4 °F 87.2 °F 71.6 °F 70% 29.91 in 10.0 mi SSE 10.4 mph - N/A   Clear
11:55 PM 80.6 °F 84.6 °F 71.6 °F 74% 29.90 in 10.0 mi SSE 10.4 mph - N/A   Clear